STARLINK-35435

Last updated on Tue Dec 16 2025 00:02:05 GMT+0000 (Coordinated Universal Time)

1 66464U 25262J 25349.22517784 .00035796 00000+0 85869-3 0 9990 2 66464 43.0033 57.0787 0001500 277.9581 82.1105 15.40751993 5949
UTC large
Height (km)
Speed (km/s)
/
Latitude / Longitude
Inclination (degrees)
Orbital Period (minutes)
Azimuth
Elevation
Range (km)
Doppler Factor

Next 0 passes for location: London (51.5072 / 0.1276)

Sorry there are no passes over London.